User: anonymous   Login
Location: ??????
(38.0131°N, 23.7723°E)
Time: 23:01:22
(UTC+00:00)
Language:

METEOR 2-5 DEB - Orbit

View from above orbital plane
View from above orbital plane
View from above satellite
View from above satellite

Ground track
Ground track

The orbit data is extracted from the following two-line orbital elements,

1 38272U 79095BS  22222.45705157  .00001097  00000-0  52194-3 0  9997
2 38272  81.2046 113.8172 0027363 176.8254 302.1776 14.18608830460030
Epoch (UTC): 10 August 2022 10:58:09
Eccentricity: 0.0027363
inclination: 81.2046°
perigee height: 810 km
apogee height: 850 km
right ascension of ascending node: 113.8172°
argument of perigee: 176.8254°
revolutions per day: 14.18608830
mean anomaly at epoch: 302.1776°
orbit number at epoch: 46003

The dashed part of the orbit path shows where the satellite is in the earth's shadow,  

DLR